KH6DH-13 Weather Reports


time (UTC)temp
F
wind
direction
speed
knots
gust
knots
rain 1hr
in
rain 24hr
in
rain mn
in
humidity
%
barometer
mb
20260507161809 73 18 2.6 3.5 0.00 0.00 0.00
20260507160808 74 75 2.6 4.3 0.00 0.00 0.00
20260507155807 73 91 2.6 4.3 0.00 0.00 0.00
20260507154803 74 111 1.7 4.3 0.00 0.00 0.00
20260507153802 74 75 2.6 5.2 0.00 0.00 0.00
20260507152801 73 49 3.5 5.2 0.00 0.00 0.00
20260507151800 73 52 2.6 5.2 0.00 0.00 0.00
20260507150759 74 87 2.6 5.2 0.00 0.00 0.00
20260507145758 74 60 2.6 6.1 0.00 0.00 0.00
20260507143723 74 53 3.5 5.2 0.00 0.00 0.00
20260507142722 74 89 3.5 4.3 0.00 0.00 0.00
20260507141721 74 41 2.6 4.3 0.00 0.00 0.00
20260507140720 74 103 1.7 5.2 0.00 0.00 0.00
20260507135719 74 46 2.6 6.1 0.00 0.00 0.00
20260507134718 74 87 3.5 5.2 0.00 0.00 0.00
20260507133717 74 68 2.6 4.3 0.00 0.00 0.00
20260507130657 74 51 2.6 5.2 0.00 0.00 0.00
20260507125656 74 91 2.6 4.3 0.00 0.00 0.00
20260507124655 74 90 3.5 4.3 0.00 0.00 0.00
20260507123654 75 79 1.7 5.2 0.00 0.00 0.00
20260507122653 74 14 2.6 3.5 0.00 0.00 0.00
20260507121652 75 46 1.7 4.3 0.00 0.00 0.00
20260507120651 74 37 2.6 6.1 0.00 0.00 0.00
20260507115650 74 66 0.9 3.5 0.00 0.00 0.00
20260507114649 75 101 1.7 3.5 0.00 0.00 0.00
20260507113648 74 45 2.6 4.3 0.00 0.00 0.00
20260507112647 75 18 2.6 5.2 0.00 0.00 0.00
20260507111646 75 55 1.7 4.3 0.00 0.00 0.00
20260507110645 75 46 2.6 4.3 0.00 0.00 0.00
20260507105644 74 48 0.9 6.1 0.00 0.00 0.00
20260507104641 75 87 3.5 4.3 0.00 0.00 0.00
20260507103640 75 62 3.5 4.3 0.00 0.00 0.00
20260507102639 75 93 2.6 5.2 0.00 0.00 0.00
20260507101638 75 10 0.9 3.5 0.00 0.00 0.00
20260507100637 75 90 3.5 6.1 0.00 0.00 0.00
20260507095636 76 65 3.5 4.3 0.00 0.00 0.00
20260507094633 75 76 2.6 3.5 0.00 0.00 0.00
20260507093632 75 103 1.7 3.5 0.00 0.00 0.00
20260507092631 75 39 3.5 4.3 0.00 0.00 0.00
20260507091630 75 7 2.6 5.2 0.00 0.00 0.00
20260507090629 75 42 2.6 5.2 0.00 0.00 0.00
20260507085628 75 122 2.6 6.1 0.00 0.00 0.00
20260507084627 76 101 2.6 5.2 0.00 0.00 0.00
20260507083626 76 93 3.5 5.2 0.00 0.00 0.00
20260507082625 75 104 3.5 6.1 0.00 0.00 0.00
20260507081624 76 87 3.5 5.2 0.00 0.00 0.00
20260507080623 75 84 2.6 6.1 0.00 0.00 0.00
20260507075622 76 100 1.7 5.2 0.00 0.00 0.00
20260507074621 76 104 4.3 6.1 0.00 0.00 0.00
20260507073620 76 113 1.7 3.5 0.00 0.00 0.00
20260507072619 76 93 2.6 6.1 0.00 0.00 0.00
20260507071618 76 70 4.3 6.1 0.00 0.00 0.00
20260507070617 77 56 4.3 5.2 0.00 0.00 0.00
20260507065616 76 49 3.5 6.1 0.00 0.00 0.00
20260507064615 77 66 1.7 4.3 0.00 0.00 0.00
20260507063614 76 55 3.5 6.1 0.00 0.00 0.00
20260507062613 76 80 1.7 5.2 0.00 0.00 0.00
20260507061612 76 98 0.9 4.3 0.00 0.00 0.00
20260507060611 77 60 1.7 6.1 0.00 0.00 0.00
20260507055610 77 49 1.7 7.0 0.00 0.00 0.00
20260507054609 76 18 3.5 7.0 0.00 0.00 0.00
20260507053608 76 96 1.7 4.3 0.00 0.00 0.00
20260507052607 76 65 2.6 7.8 0.00 0.00 0.00
20260507051602 77 59 1.7 7.0 0.00 0.00 0.00
20260507050601 77 18 2.6 6.1 0.00 0.00 0.00
20260507045600 77 62 3.5 7.8 0.00 0.00 0.00
20260507044559 77 56 3.5 7.8 0.00 0.00 0.00
20260507043558 77 73 5.2 7.8 0.00 0.00 0.00
20260507042557 77 31 4.3 8.7 0.00 0.00 0.00
20260507041556 78 65 3.5 8.7 0.00 0.00 0.00
20260507040555 78 49 2.6 8.7 0.00 0.00 0.00
20260507035554 78 134 1.7 7.0 0.00 0.00 0.00
20260507034553 78 100 2.6 7.8 0.00 0.00 0.00
20260507033549 78 38 3.5 6.1 0.00 0.00 0.00
20260507032548 78 48 3.5 7.0 0.00 0.00 0.00
20260507031547 78 49 3.5 8.7 0.00 0.00 0.00
20260507030546 78 72 2.6 7.0 0.00 0.00 0.00
20260507025545 79 77 3.5 7.0 0.00 0.00 0.00
20260507024544 79 77 2.6 11.3 0.00 0.00 0.00
20260507023543 79 11 3.5 9.6 0.00 0.00 0.00
20260507022542 80 108 2.6 7.0 0.00 0.00 0.00
20260507021541 79 96 2.6 7.0 0.00 0.00 0.00
20260507020540 80 79 2.6 5.2 0.00 0.00 0.00
20260507015539 81 34 1.7 5.2 0.00 0.00 0.00
20260507014538 81 68 1.7 6.1 0.00 0.00 0.00
20260507013537 81 49 2.6 7.8 0.00 0.00 0.00
20260507012536 82 101 1.7 7.8 0.00 0.00 0.00
20260507011535 82 13 1.7 6.1 0.00 0.00 0.00
20260507010534 82 51 1.7 5.2 0.00 0.00 0.00
20260507005533 82 125 2.6 7.8 0.00 0.00 0.00
20260507004532 82 72 1.7 7.0 0.00 0.00 0.00
20260507003531 82 11 2.6 6.1 0.00 0.00 0.00
20260507002530 81 79 3.5 6.1 0.00 0.00 0.00
20260507001529 81 149 1.7 4.3 0.00 0.00 0.00
20260507000528 82 359 1.7 6.1 0.00 0.00 0.00
20260506235527 82 28 1.7 4.3 0.00 0.00 0.00
20260506234526 82 72 4.3 4.3 0.00 0.00 0.00
20260506233525 82 132 2.6 5.2 0.00 0.00 0.00
20260506232521 83 65 2.6 3.5 0.00 0.00 0.00
20260506231520 83 156 2.6 6.1 0.00 0.00 0.00
20260506230519 84 7 3.5 7.0 0.00 0.00 0.00
20260506225518 83 186 0.9 7.0 0.00 0.00 0.00
20260506224517 84 297 3.5 5.2 0.00 0.00 0.00
20260506223516 83 98 4.3 13.0 0.00 0.00 0.00
20260506222515 84 6 2.6 7.0 0.00 0.00 0.00
20260506221514 84 4 2.6 6.1 0.00 0.00 0.00
20260506220511 84 113 1.7 7.0 0.00 0.00 0.00
20260506215510 83 340 0.9 7.0 0.00 0.00 0.00
20260506214509 82 8 0.9 5.2 0.00 0.00 0.00
20260506213508 82 353 0.9 5.2 0.00 0.00 0.00
20260506212507 82 27 2.6 6.1 0.00 0.00 0.00
20260506211502 82 108 1.7 6.1 0.00 0.00 0.00
20260506210501 82 155 3.5 7.0 0.00 0.00 0.00
20260506205500 82 98 3.5 7.8 0.00 0.00 0.00
20260506204459 82 214 0.9 7.0 0.00 0.00 0.00
20260506203458 82 146 1.7 6.1 0.00 0.00 0.00
20260506202457 81 76 1.7 6.1 0.00 0.00 0.00
20260506201456 81 96 2.6 6.1 0.00 0.00 0.00
20260506200455 80 338 1.7 4.3 0.00 0.00 0.00
20260506195454 80 32 2.6 5.2 0.00 0.00 0.00
20260506194453 80 35 1.7 5.2 0.00 0.00 0.00
20260506193452 80 229 0.9 5.2 0.00 0.00 0.00
20260506192451 78 30 0.0 4.3 0.00 0.00 0.00
20260506191450 79 21 0.0 3.5 0.00 0.00 0.00
20260506190449 78 3 0.0 4.3 0.00 0.00 0.00
20260506185448 78 15 0.0 4.3 0.00 0.00 0.00
20260506184447 77 31 1.7 6.1 0.00 0.00 0.00
20260506183446 77 3 2.6 1.7 0.00 0.00 0.00
20260506182445 76 41 0.0 1.7 0.00 0.00 0.00
20260506181444 76 304 0.0 1.7 0.00 0.00 0.00
20260506180443 76 274 0.0 5.2 0.00 0.00 0.00
20260506175442 76 107 0.9 2.6 0.00 0.00 0.00
20260506174441 75 125 1.7 3.5 0.00 0.00 0.00
20260506173440 75 86 2.6 2.6 0.00 0.00 0.00
20260506172439 75 79 0.0 0.0 0.00 0.00 0.00
20260506171438 74 53 0.0 0.0 0.00 0.00 0.00
20260506170437 74 53 0.0 0.0 0.00 0.00 0.00
20260506165436 74 53 0.0 0.0 0.00 0.00 0.00
20260506164435 74 53 0.0 0.9 0.00 0.00 0.00
20260506163434 75 52 0.0 1.7 0.00 0.00 0.00
20260506162433 74 96 0.0 0.0 0.00 0.00 0.00